Location: Bukit Setapoh
(2.2500°N, 113.8000°E)
Time: 23:14:05
(UTC+00:00)

Spot 2 - Pass Details

Date: 25 July 2021
Orbit: 569 x 774 km, 98.7° (Epoch: 22 September)

Event Time Altitude Azimuth Distance (km) Brightness Sun altitude
Rises 10:52:04 0° 162° (SSE) 2,902 7.1 -4.1°
Reaches altitude 10° 10:54:13 10° 159° (SSE) 2,023 6.3 -4.6°
Maximum altitude 10:58:35 65° 77° (ENE) 728 4.2 -5.6°
Drops below altitude 10° 11:03:13 10° 355° (N) 2,144 7.2 -6.7°
Sets 11:05:33 0° 353° (N) 3,092 8.0 -7.3°
